Weather History for Wilmington, NC

Change the Weather History Date:

Thursday, December 20, 2012

  Actual Average Record
Temperature  
Mean Temperature 55 °F 47 °F  
Max Temperature 72 °F 58 °F 80 °F (1931)
Min Temperature 38 °F 37 °F 17 °F (1981)
Degree Days  
Heating Degree Days 10 18  
Month to date heating degree days 158 309  
Since 1 July heating degree days 673 678  
Cooling Degree Days 0 0  
Month to date cooling degree days 5 0  
Year to date cooling degree days 2174 2037  
Growing Degree Days 4 (Base 50)    
Moisture  
Dew Point 50 °F    
Average Humidity 75    
Maximum Humidity 100    
Minimum Humidity 49    
Precipitation  
Precipitation 0.09 in 0.12 in 1.77 in (1946)
Month to date precipitation 1.36 2.34  
Year to date precipitation 47.22 56.33  
Snow  
Snow 0.00 in 0.00 in 1.00 in (1915)
Month to date snowfall 0.0 0.4  
Since 1 July snowfall 0.0 0.4  
Snow Depth 0.00 in    
Sea Level Pressure  
Sea Level Pressure 29.95 in    
Wind  
Wind Speed 10 mph (SE)    
Max Wind Speed 32 mph    
Max Gust Speed 40 mph    
Visibility 9 miles    
Events Rain    
T = Trace of Precipitation, MM = Missing Value Source: NWS Daily Summary

Daily Weather History Graph

Daily Weather History Graph

Search for Another Location

Airport:

Trip Planner

Search our weather history database for the weather conditions in past years. The results will help you decide how hot, cold, wet, or windy it might be!

Date:

Astronomy

Dec. 20, 2012 Rise Set
Actual Time 7:13 AM EST 5:05 PM EST
Civil Twilight 6:45 AM EST 5:33 PM EST
Nautical Twilight 6:14 AM EST 6:04 PM EST
Astronomical Twilight 5:43 AM EST 6:35 PM EST
Moon 12:10 PM EST (12/20) 12:12 AM EST (12/20)
Length of Visible Light 10h 47m
Length of Day
9h 51m
First Quarter, 55% of the Moon is Illuminated
Dec 20
First Quarter
Dec 28
Full
Jan 4
Last Quarter
Jan 11
New
Jan 18
First Quarter

Hourly Weather History & Observations

Time (EST) Temp. Windchill Dew Point Humidity Pressure Visibility Wind Dir Wind Speed Gust Speed Precip Events Conditions
12:53 AM 42.1 °F - 39.9 °F 92% 30.12 in 10.0 mi Calm Calm - N/A   Clear
1:53 AM 42.1 °F - 39.9 °F 92% 30.13 in 10.0 mi Calm Calm - N/A   Clear
2:53 AM 41.0 °F - 39.0 °F 93% 30.13 in 10.0 mi Calm Calm - N/A   Clear
3:53 AM 39.9 °F - 39.0 °F 97% 30.13 in 10.0 mi Calm Calm - N/A   Clear
4:53 AM 39.0 °F 36.8 °F 37.0 °F 93% 30.13 in 7.0 mi NE 3.5 mph - N/A   Clear
5:53 AM 41.0 °F 38.0 °F 39.0 °F 93% 30.14 in 10.0 mi NE 4.6 mph - N/A   Clear
6:53 AM 42.1 °F 40.2 °F 37.9 °F 85% 30.14 in 10.0 mi NNE 3.5 mph - N/A   Clear
7:53 AM 46.0 °F 44.8 °F 44.1 °F 93% 30.14 in 7.0 mi ENE 3.5 mph - N/A   Clear
8:53 AM 53.1 °F - 51.1 °F 93% 30.13 in 8.0 mi East 6.9 mph - N/A   Clear
9:53 AM 57.9 °F - 52.0 °F 81% 30.12 in 10.0 mi East 11.5 mph - N/A   Clear
10:53 AM 59.0 °F - 53.1 °F 81% 30.09 in 10.0 mi East 11.5 mph - N/A   Clear
11:53 AM 63.0 °F - 54.0 °F 72% 30.04 in 10.0 mi East 9.2 mph - N/A   Clear
12:53 PM 66.9 °F - 53.1 °F 61% 30.01 in 10.0 mi SE 5.8 mph - N/A   Clear
1:53 PM 71.1 °F - 53.1 °F 53% 29.96 in 10.0 mi South 9.2 mph - N/A   Clear
2:53 PM 71.1 °F - 52.0 °F 51% 29.91 in 10.0 mi SSE 10.4 mph 19.6 mph N/A   Clear
3:53 PM 69.1 °F - 53.1 °F 57% 29.89 in 10.0 mi South 9.2 mph - N/A   Mostly Cloudy
4:53 PM 68.0 °F - 55.0 °F 63% 29.87 in 10.0 mi South 12.7 mph 23.0 mph N/A   Scattered Clouds
5:53 PM 66.0 °F - 55.9 °F 70% 29.85 in 10.0 mi South 12.7 mph 20.7 mph N/A   Clear
6:53 PM 68.0 °F - 55.9 °F 65% 29.82 in 10.0 mi South 20.7 mph 27.6 mph N/A   Clear
7:53 PM 68.0 °F - 55.9 °F 65% 29.79 in 10.0 mi South 20.7 mph 29.9 mph N/A   Clear
8:53 PM 69.1 °F - 57.0 °F 65% 29.74 in 10.0 mi South 17.3 mph 33.4 mph N/A   Mostly Cloudy
9:53 PM 68.0 °F - 59.0 °F 73% 29.69 in 8.0 mi South 19.6 mph 34.5 mph 0.00 in Rain Rain
10:53 PM 66.0 °F - 61.0 °F 84% 29.62 in 7.0 mi South 24.2 mph 35.7 mph 0.05 in Rain Light Rain
11:20 PM 66.2 °F - 62.6 °F 88% 29.59 in 8.0 mi South 24.2 mph 32.2 mph 0.02 in Rain Light Rain
11:42 PM 66.2 °F - 62.6 °F 88% 29.58 in 10.0 mi South 31.1 mph 39.1 mph 0.03 in Rain Light Rain
11:53 PM 66.0 °F - 62.1 °F 87% 29.57 in 6.0 mi South 24.2 mph 40.3 mph 0.04 in Rain Light Rain